| time (UTC) | temp F | wind direction | speed MPH | gust MPH | rain 1hr in | rain 24hr in | rain mn in | humidity % | barometer mb |
| 20260506165015 | 66 | 68 | 7.0 | 12.0 | 0.00 | 0.00 | 0.00 | 83 | 1012.8 |
| 20260506164515 | 65 | 90 | 6.0 | 13.0 | 0.00 | 0.00 | 0.00 | 85 | 1012.9 |
| 20260506164016 | 64 | 45 | 6.0 | 12.0 | 0.00 | 0.00 | 0.00 | 86 | 1013.3 |
| 20260506163515 | 63 | 23 | 7.0 | 12.0 | 0.00 | 0.00 | 0.00 | 88 | 1013.1 |
| 20260506163016 | 62 | 45 | 7.0 | 12.0 | 0.00 | 0.00 | 0.00 | 86 | 1013.2 |
| 20260506162536 | 61 | 23 | 7.0 | 13.0 | 0.00 | 0.00 | 0.00 | 86 | 1013.4 |
| 20260506162015 | 60 | 45 | 9.0 | 19.0 | 0.00 | 0.00 | 0.00 | 88 | 1012.9 |
| 20260506161515 | 61 | 45 | 7.0 | 13.0 | 0.00 | 0.00 | 0.00 | 88 | 1013.4 |
| 20260506161015 | 61 | 23 | 10.0 | 17.0 | 0.00 | 0.00 | 0.00 | 88 | 1013.9 |
| 20260506160515 | 61 | 23 | 7.0 | 17.0 | 0.00 | 0.00 | 0.00 | 88 | 1014.2 |
| 20260506160036 | 61 | 23 | 7.0 | 15.0 | 0.00 | 0.00 | 0.00 | 88 | 1014.7 |
| 20260506155515 | 61 | 23 | 7.0 | 12.0 | 0.00 | 0.00 | 0.00 | 88 | 1014.4 |
| 20260506155035 | 61 | 23 | 10.0 | 19.0 | 0.00 | 0.00 | 0.00 | 88 | 1014.4 |
| 20260506154515 | 62 | 0 | 10.0 | 18.0 | 0.00 | 0.00 | 0.00 | 88 | 1014.7 |
| 20260506154015 | 62 | 23 | 8.0 | 21.0 | 0.00 | 0.00 | 0.00 | 88 | 1014.1 |
| 20260506153515 | 63 | 23 | 8.0 | 16.0 | 0.00 | 0.00 | 0.00 | 88 | 1014.6 |
| 20260506153055 | 63 | 23 | 8.0 | 17.0 | 0.00 | 0.00 | 0.00 | 89 | 1014.1 |
| 20260506152515 | 63 | 0 | 8.0 | 18.0 | 0.00 | 0.00 | 0.00 | 89 | 1014.0 |
| 20260506152015 | 64 | 23 | 7.0 | 15.0 | 0.00 | 0.00 | 0.00 | 88 | 1013.7 |
| 20260506151515 | 64 | 0 | 7.0 | 17.0 | 0.00 | 0.00 | 0.00 | 89 | 1013.4 |
| 20260506151015 | 64 | 23 | 7.0 | 15.0 | 0.00 | 0.00 | 0.00 | 88 | 1013.0 |
| 20260506150515 | 65 | 0 | 7.0 | 14.0 | 0.00 | 0.00 | 0.00 | 88 | 1012.9 |
| 20260506150015 | 65 | 23 | 8.0 | 17.0 | 0.00 | 0.00 | 0.00 | 88 | 1012.9 |
| 20260506145515 | 66 | 23 | 11.0 | 22.0 | 0.00 | 0.00 | 0.00 | 88 | 1012.6 |
| 20260506145015 | 67 | 23 | 9.0 | 22.0 | 0.00 | 0.00 | 0.00 | 88 | 1012.5 |
| 20260506144515 | 67 | 23 | 8.0 | 14.0 | 0.00 | 0.00 | 0.00 | 88 | 1012.0 |
| 20260506144015 | 68 | 23 | 9.0 | 19.0 | 0.00 | 0.00 | 0.00 | 86 | 1011.9 |
| 20260506143515 | 69 | 45 | 8.0 | 16.0 | 0.00 | 0.00 | 0.00 | 86 | 1012.2 |
| 20260506143015 | 70 | 23 | 7.0 | 17.0 | 0.00 | 0.00 | 0.00 | 86 | 1012.1 |
| 20260506142515 | 71 | 23 | 9.0 | 16.0 | 0.00 | 0.00 | 0.00 | 85 | 1011.5 |
| 20260506142015 | 74 | 23 | 6.0 | 13.0 | 0.00 | 0.00 | 0.00 | 85 | 1011.5 |
| 20260506141515 | 76 | 0.0 | 4.0 | 0.00 | 0.00 | 0.00 | 86 | 1011.2 | |
| 20260506141015 | 76 | 0.0 | 1.0 | 0.00 | 0.00 | 0.00 | 86 | 1011.3 | |
| 20260506140515 | 76 | 0.0 | 1.0 | 0.00 | 0.00 | 0.00 | 85 | 1011.4 | |
| 20260506140015 | 75 | 0.0 | 0.0 | 0.00 | 0.00 | 0.00 | 86 | 1011.5 | |
| 20260506135515 | 75 | 0.0 | 1.0 | 0.00 | 0.00 | 0.00 | 85 | 1011.7 | |
| 20260506135015 | 75 | 0.0 | 2.0 | 0.00 | 0.00 | 0.00 | 85 | 1011.4 | |
| 20260506134535 | 75 | 135 | 2.0 | 4.0 | 0.00 | 0.00 | 0.00 | 85 | 1011.0 |
| 20260506134015 | 75 | 0.0 | 3.0 | 0.00 | 0.00 | 0.00 | 84 | 1010.9 | |
| 20260506133536 | 75 | 0.0 | 0.0 | 0.00 | 0.00 | 0.00 | 84 | 1011.1 | |
| 20260506133015 | 75 | 135 | 1.0 | 3.0 | 0.00 | 0.00 | 0.00 | 82 | 1011.0 |
| 20260506132515 | 75 | 135 | 1.0 | 4.0 | 0.00 | 0.00 | 0.00 | 81 | 1011.1 |
| 20260506132017 | 75 | 135 | 1.0 | 4.0 | 0.00 | 0.00 | 0.00 | 80 | 1011.0 |
| 20260506131515 | 75 | 135 | 2.0 | 4.0 | 0.00 | 0.00 | 0.00 | 78 | 1010.7 |
| 20260506131037 | 75 | 135 | 2.0 | 6.0 | 0.00 | 0.00 | 0.00 | 76 | 1010.5 |
| 20260506130517 | 74 | 135 | 3.0 | 7.0 | 0.00 | 0.00 | 0.00 | 76 | 1010.5 |
| 20260506130017 | 74 | 158 | 3.0 | 6.0 | 0.00 | 0.00 | 0.00 | 75 | 1010.7 |
| 20260506125517 | 74 | 135 | 2.0 | 9.0 | 0.00 | 0.00 | 0.00 | 74 | 1010.5 |
| 20260506125017 | 74 | 135 | 2.0 | 5.0 | 0.00 | 0.00 | 0.00 | 74 | 1010.5 |
| 20260506124537 | 73 | 180 | 1.0 | 4.0 | 0.00 | 0.00 | 0.00 | 74 | 1010.3 |
| 20260506124017 | 73 | 180 | 1.0 | 3.0 | 0.00 | 0.00 | 0.00 | 75 | 1010.4 |
| 20260506123517 | 73 | 180 | 1.0 | 3.0 | 0.00 | 0.00 | 0.00 | 75 | 1010.4 |
| 20260506123017 | 72 | 180 | 1.0 | 6.0 | 0.00 | 0.00 | 0.00 | 75 | 1010.2 |
| 20260506122517 | 72 | 180 | 1.0 | 4.0 | 0.00 | 0.00 | 0.00 | 76 | 1010.3 |
| 20260506122037 | 72 | 0.0 | 0.0 | 0.00 | 0.00 | 0.00 | 76 | 1010.3 | |
| 20260506121517 | 72 | 0.0 | 0.0 | 0.00 | 0.00 | 0.00 | 76 | 1010.4 | |
| 20260506121017 | 72 | 0.0 | 0.0 | 0.00 | 0.00 | 0.00 | 76 | 1010.3 | |
| 20260506120517 | 72 | 0.0 | 0.0 | 0.00 | 0.00 | 0.00 | 77 | 1010.3 | |
| 20260506120017 | 72 | 0.0 | 0.0 | 0.00 | 0.00 | 0.00 | 77 | 1010.3 | |
| 20260506115517 | 72 | 0.0 | 0.0 | 0.00 | 0.00 | 0.00 | 78 | 1010.2 | |
| 20260506115037 | 72 | 0.0 | 1.0 | 0.00 | 0.00 | 0.00 | 78 | 1010.2 | |
| 20260506114516 | 72 | 0.0 | 1.0 | 0.00 | 0.00 | 0.00 | 78 | 1010.1 | |
| 20260506114037 | 73 | 0.0 | 1.0 | 0.00 | 0.00 | 0.00 | 79 | 1010.2 | |
| 20260506113517 | 73 | 0.0 | 1.0 | 0.00 | 0.00 | 0.00 | 79 | 1010.1 | |
| 20260506113017 | 73 | 0.0 | 2.0 | 0.00 | 0.00 | 0.00 | 79 | 1010.2 | |
| 20260506112537 | 73 | 0.0 | 1.0 | 0.00 | 0.00 | 0.00 | 79 | 1010.3 | |
| 20260506112017 | 73 | 203 | 1.0 | 2.0 | 0.00 | 0.00 | 0.00 | 80 | 1010.3 |
| 20260506111516 | 73 | 0.0 | 2.0 | 0.00 | 0.00 | 0.00 | 80 | 1010.3 | |
| 20260506111017 | 74 | 203 | 1.0 | 4.0 | 0.00 | 0.00 | 0.00 | 81 | 1010.2 |
| 20260506110516 | 74 | 180 | 1.0 | 3.0 | 0.00 | 0.00 | 0.00 | 81 | 1010.3 |
| 20260506110016 | 74 | 180 | 1.0 | 3.0 | 0.00 | 0.00 | 0.00 | 82 | 1010.3 |
| 20260506105537 | 74 | 180 | 1.0 | 3.0 | 0.00 | 0.00 | 0.00 | 82 | 1010.3 |
| 20260506105017 | 74 | 0.0 | 2.0 | 0.00 | 0.00 | 0.00 | 83 | 1010.3 | |
| 20260506104516 | 74 | 180 | 1.0 | 3.0 | 0.00 | 0.00 | 0.00 | 83 | 1010.2 |
| 20260506104037 | 74 | 180 | 1.0 | 3.0 | 0.00 | 0.00 | 0.00 | 83 | 1010.3 |
| 20260506103517 | 74 | 180 | 1.0 | 4.0 | 0.00 | 0.00 | 0.00 | 84 | 1010.2 |
| 20260506103017 | 74 | 180 | 1.0 | 4.0 | 0.00 | 0.00 | 0.00 | 84 | 1010.1 |
| 20260506102517 | 74 | 180 | 2.0 | 5.0 | 0.00 | 0.00 | 0.00 | 85 | 1010.0 |
| 20260506102017 | 74 | 180 | 1.0 | 6.0 | 0.00 | 0.00 | 0.00 | 85 | 1010.0 |
| 20260506101517 | 74 | 158 | 1.0 | 4.0 | 0.00 | 0.00 | 0.00 | 85 | 1010.0 |
| 20260506101016 | 74 | 180 | 1.0 | 6.0 | 0.00 | 0.00 | 0.00 | 85 | 1010.0 |
| 20260506100516 | 74 | 180 | 2.0 | 4.0 | 0.00 | 0.00 | 0.00 | 85 | 1009.8 |
| 20260506100017 | 74 | 203 | 1.0 | 5.0 | 0.00 | 0.00 | 0.00 | 86 | 1009.8 |
| 20260506095517 | 74 | 203 | 1.0 | 6.0 | 0.00 | 0.00 | 0.00 | 86 | 1010.0 |
| 20260506095037 | 74 | 180 | 2.0 | 6.0 | 0.00 | 0.00 | 0.00 | 86 | 1009.9 |
| 20260506094517 | 74 | 158 | 2.0 | 8.0 | 0.00 | 0.00 | 0.00 | 86 | 1009.8 |
| 20260506094017 | 75 | 158 | 1.0 | 7.0 | 0.00 | 0.00 | 0.00 | 86 | 1009.7 |
| 20260506093516 | 75 | 158 | 1.0 | 7.0 | 0.00 | 0.00 | 0.00 | 86 | 1009.7 |
| 20260506093016 | 75 | 158 | 2.0 | 7.0 | 0.00 | 0.00 | 0.00 | 86 | 1009.6 |
| 20260506092557 | 74 | 158 | 1.0 | 7.0 | 0.00 | 0.00 | 0.00 | 86 | 1009.6 |
| 20260506092016 | 74 | 158 | 1.0 | 6.0 | 0.00 | 0.00 | 0.00 | 86 | 1009.5 |
| 20260506091516 | 74 | 158 | 2.0 | 6.0 | 0.00 | 0.00 | 0.00 | 86 | 1009.4 |
| 20260506091016 | 74 | 158 | 2.0 | 6.0 | 0.00 | 0.00 | 0.00 | 86 | 1009.5 |
| 20260506090517 | 75 | 0.0 | 3.0 | 0.00 | 0.00 | 0.00 | 86 | 1009.5 | |
| 20260506090017 | 75 | 180 | 1.0 | 4.0 | 0.00 | 0.00 | 0.00 | 86 | 1009.4 |
| 20260506085516 | 75 | 180 | 1.0 | 6.0 | 0.00 | 0.00 | 0.00 | 86 | 1009.4 |
| 20260506085016 | 75 | 180 | 1.0 | 3.0 | 0.00 | 0.00 | 0.00 | 86 | 1009.4 |
| 20260506084516 | 75 | 180 | 1.0 | 5.0 | 0.00 | 0.00 | 0.00 | 86 | 1009.5 |
| 20260506084016 | 75 | 203 | 1.0 | 7.0 | 0.00 | 0.00 | 0.00 | 86 | 1009.5 |
| 20260506083516 | 75 | 180 | 1.0 | 4.0 | 0.00 | 0.00 | 0.00 | 86 | 1009.4 |
| 20260506083017 | 75 | 180 | 1.0 | 4.0 | 0.00 | 0.00 | 0.00 | 86 | 1009.4 |
| 20260506082537 | 75 | 180 | 1.0 | 4.0 | 0.00 | 0.00 | 0.00 | 86 | 1009.5 |
| 20260506082017 | 75 | 180 | 1.0 | 4.0 | 0.00 | 0.00 | 0.00 | 86 | 1009.5 |
| 20260506081516 | 75 | 180 | 1.0 | 6.0 | 0.00 | 0.00 | 0.00 | 86 | 1009.4 |
| 20260506081017 | 75 | 180 | 1.0 | 4.0 | 0.00 | 0.00 | 0.00 | 86 | 1009.2 |
| 20260506080516 | 75 | 158 | 3.0 | 9.0 | 0.00 | 0.00 | 0.00 | 86 | 1009.1 |
| 20260506073516 | 75 | 203 | 5.0 | 14.0 | 0.00 | 0.00 | 0.00 | 86 | 1009.3 |
| 20260506073016 | 75 | 203 | 5.0 | 12.0 | 0.00 | 0.00 | 0.00 | 86 | 1009.4 |
| 20260506072517 | 75 | 225 | 4.0 | 13.0 | 0.00 | 0.00 | 0.00 | 86 | 1009.4 |
| 20260506072016 | 75 | 203 | 5.0 | 11.0 | 0.00 | 0.00 | 0.00 | 86 | 1009.5 |
| 20260506071516 | 75 | 180 | 6.0 | 13.0 | 0.00 | 0.00 | 0.00 | 86 | 1009.6 |
| 20260506071016 | 75 | 180 | 7.0 | 16.0 | 0.00 | 0.00 | 0.00 | 86 | 1009.4 |
| 20260506070517 | 75 | 203 | 5.0 | 10.0 | 0.00 | 0.00 | 0.00 | 86 | 1009.5 |
| 20260506062516 | 75 | 180 | 5.0 | 11.0 | 0.00 | 0.00 | 0.00 | 86 | 1009.3 |
| 20260506062016 | 75 | 180 | 5.0 | 11.0 | 0.00 | 0.00 | 0.00 | 86 | 1009.3 |
| 20260506061516 | 75 | 180 | 5.0 | 11.0 | 0.00 | 0.00 | 0.00 | 86 | 1009.0 |
| 20260506061016 | 75 | 203 | 5.0 | 16.0 | 0.00 | 0.00 | 0.00 | 86 | 1009.0 |
| 20260506060516 | 75 | 180 | 5.0 | 13.0 | 0.00 | 0.00 | 0.00 | 86 | 1008.9 |
| 20260506051016 | 75 | 158 | 5.0 | 12.0 | 0.00 | 0.00 | 0.00 | 86 | 1009.3 |
| 20260506050516 | 75 | 158 | 5.0 | 13.0 | 0.00 | 0.00 | 0.00 | 86 | 1009.3 |
| 20260506045017 | 75 | 180 | 3.0 | 9.0 | 0.00 | 0.00 | 0.00 | 86 | 1009.2 |
| 20260506044517 | 75 | 180 | 4.0 | 11.0 | 0.00 | 0.00 | 0.00 | 86 | 1009.2 |
| 20260506044016 | 75 | 158 | 4.0 | 10.0 | 0.00 | 0.00 | 0.00 | 86 | 1009.2 |
| 20260506043517 | 76 | 180 | 2.0 | 8.0 | 0.00 | 0.00 | 0.00 | 86 | 1009.2 |
| 20260506043017 | 76 | 158 | 6.0 | 13.0 | 0.00 | 0.00 | 0.00 | 86 | 1009.0 |
| 20260506042517 | 76 | 203 | 4.0 | 13.0 | 0.00 | 0.00 | 0.00 | 86 | 1008.9 |
| 20260506042037 | 76 | 203 | 3.0 | 9.0 | 0.00 | 0.00 | 0.00 | 86 | 1008.9 |
| 20260506041637 | 76 | 180 | 4.0 | 14.0 | 0.00 | 0.00 | 0.00 | 86 | 1009.0 |
| 20260506041037 | 76 | 158 | 4.0 | 10.0 | 0.00 | 0.00 | 0.00 | 86 | 1009.1 |
| 20260506040517 | 76 | 203 | 3.0 | 12.0 | 0.00 | 0.00 | 0.00 | 86 | 1009.0 |
| 20260506040017 | 76 | 180 | 3.0 | 12.0 | 0.00 | 0.00 | 0.00 | 86 | 1008.8 |
| 20260506035537 | 76 | 180 | 2.0 | 6.0 | 0.00 | 0.00 | 0.00 | 86 | 1008.9 |
| 20260506035016 | 76 | 158 | 2.0 | 9.0 | 0.00 | 0.00 | 0.00 | 86 | 1008.8 |
| 20260506034537 | 76 | 158 | 2.0 | 8.0 | 0.00 | 0.00 | 0.00 | 86 | 1008.7 |
| 20260506034017 | 76 | 158 | 2.0 | 11.0 | 0.00 | 0.00 | 0.00 | 86 | 1008.5 |
| 20260506033517 | 76 | 158 | 4.0 | 10.0 | 0.00 | 0.00 | 0.00 | 85 | 1008.6 |
| 20260506033016 | 76 | 158 | 3.0 | 8.0 | 0.00 | 0.00 | 0.00 | 85 | 1008.6 |
| 20260506032516 | 77 | 158 | 4.0 | 10.0 | 0.00 | 0.00 | 0.00 | 85 | 1008.8 |
| 20260506032017 | 77 | 158 | 4.0 | 11.0 | 0.00 | 0.00 | 0.00 | 84 | 1008.6 |
| 20260506031516 | 77 | 158 | 4.0 | 10.0 | 0.00 | 0.00 | 0.00 | 84 | 1008.5 |
| 20260506031016 | 77 | 158 | 4.0 | 10.0 | 0.00 | 0.00 | 0.00 | 84 | 1008.6 |
| 20260506030516 | 77 | 180 | 5.0 | 11.0 | 0.00 | 0.00 | 0.00 | 83 | 1008.2 |
| 20260506030017 | 77 | 158 | 3.0 | 9.0 | 0.00 | 0.00 | 0.00 | 83 | 1008.3 |
| 20260506025517 | 77 | 158 | 4.0 | 11.0 | 0.00 | 0.00 | 0.00 | 83 | 1008.3 |
| 20260506025017 | 78 | 158 | 4.0 | 11.0 | 0.00 | 0.00 | 0.00 | 82 | 1008.1 |
| 20260506024517 | 78 | 180 | 4.0 | 10.0 | 0.00 | 0.00 | 0.00 | 82 | 1008.3 |
| 20260506024016 | 78 | 158 | 2.0 | 8.0 | 0.00 | 0.00 | 0.00 | 82 | 1008.1 |
| 20260506023516 | 78 | 158 | 2.0 | 7.0 | 0.00 | 0.00 | 0.00 | 82 | 1008.0 |
| 20260506023016 | 78 | 180 | 3.0 | 9.0 | 0.00 | 0.00 | 0.00 | 81 | 1007.9 |
| 20260506022516 | 78 | 158 | 3.0 | 11.0 | 0.00 | 0.00 | 0.00 | 81 | 1007.8 |
| 20260506022057 | 78 | 158 | 2.0 | 9.0 | 0.00 | 0.00 | 0.00 | 81 | 1007.7 |
| 20260506021517 | 78 | 158 | 3.0 | 9.0 | 0.00 | 0.00 | 0.00 | 81 | 1007.5 |
| 20260506021017 | 78 | 135 | 1.0 | 6.0 | 0.00 | 0.00 | 0.00 | 81 | 1007.5 |
| 20260506020516 | 78 | 135 | 2.0 | 4.0 | 0.00 | 0.00 | 0.00 | 80 | 1007.5 |
| 20260506020016 | 78 | 135 | 2.0 | 7.0 | 0.00 | 0.00 | 0.00 | 80 | 1007.4 |
| 20260506015537 | 78 | 135 | 3.0 | 8.0 | 0.00 | 0.00 | 0.00 | 80 | 1007.2 |
| 20260506015037 | 79 | 158 | 2.0 | 7.0 | 0.00 | 0.00 | 0.00 | 79 | 1007.1 |
| 20260506014536 | 79 | 158 | 3.0 | 7.0 | 0.00 | 0.00 | 0.00 | 79 | 1007.1 |
| 20260506014016 | 79 | 180 | 3.0 | 8.0 | 0.00 | 0.00 | 0.00 | 79 | 1007.3 |
| 20260506013516 | 79 | 158 | 3.0 | 8.0 | 0.00 | 0.00 | 0.00 | 79 | 1007.1 |
| 20260506013016 | 79 | 158 | 3.0 | 8.0 | 0.00 | 0.00 | 0.00 | 79 | 1007.1 |
| 20260506012516 | 79 | 158 | 3.0 | 10.0 | 0.00 | 0.00 | 0.00 | 78 | 1007.0 |
| 20260506012016 | 79 | 158 | 2.0 | 7.0 | 0.00 | 0.00 | 0.00 | 78 | 1007.0 |
| 20260506011516 | 79 | 158 | 3.0 | 8.0 | 0.00 | 0.00 | 0.00 | 78 | 1007.0 |
| 20260506011017 | 79 | 158 | 3.0 | 10.0 | 0.00 | 0.00 | 0.00 | 78 | 1006.9 |
| 20260506010557 | 80 | 158 | 2.0 | 6.0 | 0.00 | 0.00 | 0.00 | 77 | 1007.0 |
| 20260506010017 | 80 | 135 | 2.0 | 9.0 | 0.00 | 0.00 | 0.00 | 77 | 1007.1 |
| 20260506005516 | 80 | 158 | 2.0 | 6.0 | 0.00 | 0.00 | 0.00 | 76 | 1007.1 |
| 20260506005016 | 80 | 158 | 3.0 | 7.0 | 0.00 | 0.00 | 0.00 | 76 | 1007.0 |
| 20260506004516 | 81 | 180 | 2.0 | 7.0 | 0.00 | 0.00 | 0.00 | 75 | 1007.2 |
| 20260506004016 | 81 | 180 | 2.0 | 7.0 | 0.00 | 0.00 | 0.00 | 74 | 1007.1 |
| 20260506003516 | 81 | 180 | 2.0 | 4.0 | 0.00 | 0.00 | 0.00 | 75 | 1007.1 |
| 20260506003016 | 81 | 158 | 2.0 | 7.0 | 0.00 | 0.00 | 0.00 | 74 | 1007.0 |
| 20260506002516 | 81 | 158 | 2.0 | 7.0 | 0.00 | 0.00 | 0.00 | 74 | 1007.1 |
| 20260506002016 | 81 | 158 | 2.0 | 9.0 | 0.00 | 0.00 | 0.00 | 74 | 1007.1 |
| 20260506001516 | 81 | 203 | 2.0 | 8.0 | 0.00 | 0.00 | 0.00 | 74 | 1007.2 |
| 20260506001036 | 81 | 180 | 2.0 | 7.0 | 0.00 | 0.00 | 0.00 | 74 | 1007.0 |
| 20260506000516 | 81 | 180 | 4.0 | 9.0 | 0.00 | 0.00 | 0.00 | 73 | 1007.2 |
| 20260506000016 | 82 | 158 | 3.0 | 7.0 | 0.00 | 0.00 | 0.00 | 73 | 1007.3 |
| 20260505235516 | 82 | 180 | 2.0 | 11.0 | 0.00 | 0.00 | 0.00 | 73 | 1007.3 |
| 20260505235016 | 82 | 203 | 3.0 | 9.0 | 0.00 | 0.00 | 0.00 | 72 | 1007.3 |
| 20260505234516 | 82 | 203 | 2.0 | 7.0 | 0.00 | 0.00 | 0.00 | 72 | 1006.9 |
| 20260505234016 | 82 | 158 | 3.0 | 8.0 | 0.00 | 0.00 | 0.00 | 72 | 1007.0 |
| 20260505233516 | 82 | 180 | 4.0 | 10.0 | 0.00 | 0.00 | 0.00 | 71 | 1006.9 |
| 20260505233036 | 82 | 203 | 5.0 | 12.0 | 0.00 | 0.00 | 0.00 | 71 | 1007.0 |
| 20260505232516 | 82 | 203 | 3.0 | 10.0 | 0.00 | 0.00 | 0.00 | 71 | 1006.9 |
| 20260505232016 | 82 | 158 | 4.0 | 10.0 | 0.00 | 0.00 | 0.00 | 71 | 1006.8 |
| 20260505231556 | 83 | 180 | 4.0 | 10.0 | 0.00 | 0.00 | 0.00 | 70 | 1006.8 |
| 20260505231016 | 83 | 180 | 4.0 | 10.0 | 0.00 | 0.00 | 0.00 | 71 | 1006.7 |
| 20260505230516 | 83 | 203 | 3.0 | 7.0 | 0.00 | 0.00 | 0.00 | 70 | 1006.7 |
| 20260505230016 | 82 | 203 | 4.0 | 10.0 | 0.00 | 0.00 | 0.00 | 70 | 1006.7 |
| 20260505225516 | 83 | 180 | 5.0 | 12.0 | 0.00 | 0.00 | 0.00 | 69 | 1006.6 |
| 20260505225016 | 83 | 180 | 4.0 | 13.0 | 0.00 | 0.00 | 0.00 | 69 | 1006.7 |
| 20260505224516 | 83 | 135 | 3.0 | 8.0 | 0.00 | 0.00 | 0.00 | 70 | 1006.7 |
| 20260505224036 | 83 | 158 | 4.0 | 12.0 | 0.00 | 0.00 | 0.00 | 69 | 1006.7 |
| 20260505223516 | 83 | 203 | 4.0 | 7.0 | 0.00 | 0.00 | 0.00 | 69 | 1006.6 |
| 20260505223016 | 83 | 203 | 4.0 | 10.0 | 0.00 | 0.00 | 0.00 | 69 | 1006.7 |
| 20260505222517 | 83 | 203 | 4.0 | 10.0 | 0.00 | 0.00 | 0.00 | 69 | 1006.7 |
| 20260505222016 | 83 | 158 | 5.0 | 13.0 | 0.00 | 0.00 | 0.00 | 69 | 1006.5 |
| 20260505221616 | 83 | 225 | 6.0 | 10.0 | 0.00 | 0.00 | 0.00 | 68 | 1006.6 |
| 20260505221016 | 83 | 203 | 6.0 | 12.0 | 0.00 | 0.00 | 0.00 | 68 | 1006.7 |
| 20260505220516 | 83 | 203 | 5.0 | 13.0 | 0.00 | 0.00 | 0.00 | 67 | 1006.7 |
| 20260505220016 | 84 | 158 | 4.0 | 11.0 | 0.00 | 0.00 | 0.00 | 69 | 1006.7 |
| 20260505215516 | 84 | 225 | 5.0 | 18.0 | 0.00 | 0.00 | 0.00 | 68 | 1006.8 |
| 20260505215016 | 84 | 203 | 5.0 | 13.0 | 0.00 | 0.00 | 0.00 | 68 | 1006.9 |
| 20260505214516 | 84 | 180 | 5.0 | 12.0 | 0.00 | 0.00 | 0.00 | 68 | 1006.9 |
| 20260505214036 | 84 | 158 | 3.0 | 11.0 | 0.00 | 0.00 | 0.00 | 70 | 1007.0 |
| 20260505213516 | 84 | 180 | 3.0 | 9.0 | 0.00 | 0.00 | 0.00 | 69 | 1007.1 |
| 20260505213016 | 84 | 203 | 4.0 | 10.0 | 0.00 | 0.00 | 0.00 | 68 | 1007.2 |
| 20260505212516 | 84 | 203 | 6.0 | 13.0 | 0.00 | 0.00 | 0.00 | 68 | 1007.1 |
| 20260505212016 | 84 | 135 | 5.0 | 15.0 | 0.00 | 0.00 | 0.00 | 67 | 1007.1 |
| 20260505211516 | 85 | 135 | 4.0 | 9.0 | 0.00 | 0.00 | 0.00 | 67 | 1007.3 |
| 20260505211016 | 84 | 180 | 4.0 | 12.0 | 0.00 | 0.00 | 0.00 | 69 | 1007.5 |
| 20260505210516 | 84 | 180 | 6.0 | 14.0 | 0.00 | 0.00 | 0.00 | 68 | 1007.5 |
| 20260505210036 | 84 | 158 | 5.0 | 14.0 | 0.00 | 0.00 | 0.00 | 68 | 1007.4 |
| 20260505205516 | 84 | 203 | 5.0 | 14.0 | 0.00 | 0.00 | 0.00 | 68 | 1007.4 |
| 20260505205015 | 85 | 158 | 6.0 | 14.0 | 0.00 | 0.00 | 0.00 | 69 | 1007.5 |
| 20260505204536 | 84 | 203 | 4.0 | 9.0 | 0.00 | 0.00 | 0.00 | 68 | 1007.5 |
| 20260505204016 | 84 | 158 | 6.0 | 12.0 | 0.00 | 0.00 | 0.00 | 67 | 1007.6 |
| 20260505203516 | 84 | 180 | 7.0 | 15.0 | 0.00 | 0.00 | 0.00 | 68 | 1007.7 |
| 20260505203016 | 84 | 158 | 6.0 | 15.0 | 0.00 | 0.00 | 0.00 | 67 | 1007.7 |
| 20260505202516 | 84 | 180 | 6.0 | 12.0 | 0.00 | 0.00 | 0.00 | 68 | 1007.8 |
| 20260505202016 | 84 | 203 | 6.0 | 15.0 | 0.00 | 0.00 | 0.00 | 69 | 1007.9 |
| 20260505201516 | 84 | 203 | 6.0 | 13.0 | 0.00 | 0.00 | 0.00 | 69 | 1008.0 |
| 20260505201015 | 83 | 203 | 6.0 | 15.0 | 0.00 | 0.00 | 0.00 | 69 | 1008.0 |
| 20260505200516 | 83 | 180 | 4.0 | 12.0 | 0.00 | 0.00 | 0.00 | 69 | 1008.1 |
| 20260505200016 | 84 | 180 | 5.0 | 11.0 | 0.00 | 0.00 | 0.00 | 68 | 1008.1 |
| 20260505195515 | 83 | 203 | 5.0 | 13.0 | 0.00 | 0.00 | 0.00 | 69 | 1008.0 |
| 20260505195016 | 85 | 180 | 6.0 | 15.0 | 0.00 | 0.00 | 0.00 | 66 | 1008.2 |
| 20260505194516 | 84 | 180 | 6.0 | 14.0 | 0.00 | 0.00 | 0.00 | 69 | 1008.3 |
| 20260505194015 | 83 | 158 | 4.0 | 13.0 | 0.00 | 0.00 | 0.00 | 69 | 1008.4 |
| 20260505193516 | 83 | 225 | 7.0 | 12.0 | 0.00 | 0.00 | 0.00 | 68 | 1008.5 |
| 20260505193036 | 83 | 158 | 4.0 | 13.0 | 0.00 | 0.00 | 0.00 | 70 | 1008.7 |
| 20260505192516 | 83 | 203 | 4.0 | 11.0 | 0.00 | 0.00 | 0.00 | 70 | 1008.5 |
| 20260505192036 | 84 | 158 | 5.0 | 13.0 | 0.00 | 0.00 | 0.00 | 68 | 1008.6 |
| 20260505191516 | 84 | 203 | 4.0 | 10.0 | 0.00 | 0.00 | 0.00 | 70 | 1008.7 |
| 20260505191036 | 83 | 203 | 5.0 | 12.0 | 0.00 | 0.00 | 0.00 | 70 | 1008.8 |
| 20260505190536 | 82 | 180 | 6.0 | 12.0 | 0.00 | 0.00 | 0.00 | 70 | 1008.9 |
| 20260505190016 | 82 | 248 | 3.0 | 7.0 | 0.00 | 0.00 | 0.00 | 73 | 1008.8 |
| 20260505185516 | 82 | 225 | 5.0 | 11.0 | 0.00 | 0.00 | 0.00 | 71 | 1008.8 |
| 20260505185015 | 83 | 225 | 4.0 | 11.0 | 0.00 | 0.00 | 0.00 | 70 | 1008.9 |
| 20260505184535 | 83 | 225 | 6.0 | 13.0 | 0.00 | 0.00 | 0.00 | 70 | 1009.1 |
| 20260505184016 | 82 | 158 | 5.0 | 13.0 | 0.00 | 0.00 | 0.00 | 70 | 1009.2 |
| 20260505183515 | 80 | 225 | 4.0 | 13.0 | 0.00 | 0.00 | 0.00 | 73 | 1009.3 |
| 20260505183015 | 81 | 248 | 4.0 | 10.0 | 0.00 | 0.00 | 0.00 | 72 | 1009.5 |
| 20260505182515 | 81 | 203 | 7.0 | 16.0 | 0.00 | 0.00 | 0.00 | 70 | 1009.5 |
| 20260505182015 | 81 | 180 | 5.0 | 13.0 | 0.00 | 0.00 | 0.00 | 73 | 1009.4 |
| 20260505181515 | 81 | 203 | 5.0 | 13.0 | 0.00 | 0.00 | 0.00 | 75 | 1009.5 |
| 20260505181016 | 79 | 225 | 6.0 | 15.0 | 0.00 | 0.00 | 0.00 | 74 | 1009.6 |
| 20260505180516 | 80 | 225 | 4.0 | 11.0 | 0.00 | 0.00 | 0.00 | 76 | 1009.5 |
| 20260505180015 | 78 | 225 | 5.0 | 11.0 | 0.00 | 0.00 | 0.00 | 78 | 1009.5 |
| 20260505175516 | 78 | 248 | 5.0 | 13.0 | 0.00 | 0.00 | 0.00 | 77 | 1009.7 |
| 20260505175035 | 78 | 225 | 2.0 | 9.0 | 0.00 | 0.00 | 0.00 | 78 | 1009.7 |
| 20260505174536 | 78 | 248 | 5.0 | 16.0 | 0.00 | 0.00 | 0.00 | 78 | 1009.6 |
| 20260505174035 | 77 | 225 | 4.0 | 11.0 | 0.00 | 0.00 | 0.00 | 79 | 1009.6 |
| 20260505173516 | 77 | 225 | 3.0 | 12.0 | 0.00 | 0.00 | 0.00 | 80 | 1009.7 |
| 20260505173016 | 76 | 248 | 4.0 | 12.0 | 0.00 | 0.00 | 0.00 | 81 | 1009.6 |
| 20260505172515 | 76 | 225 | 5.0 | 9.0 | 0.00 | 0.00 | 0.00 | 81 | 1009.6 |
| 20260505172015 | 76 | 225 | 5.0 | 13.0 | 0.00 | 0.00 | 0.00 | 81 | 1009.7 |
| 20260505171515 | 75 | 225 | 5.0 | 13.0 | 0.00 | 0.00 | 0.00 | 82 | 1009.7 |
| 20260505171015 | 75 | 203 | 4.0 | 12.0 | 0.00 | 0.00 | 0.00 | 82 | 1009.6 |
| 20260505170515 | 75 | 203 | 4.0 | 11.0 | 0.00 | 0.00 | 0.00 | 83 | 1009.8 |
| 20260505170015 | 75 | 225 | 4.0 | 15.0 | 0.00 | 0.00 | 0.00 | 83 | 1009.7 |
| 20260505165535 | 74 | 203 | 3.0 | 8.0 | 0.00 | 0.00 | 0.00 | 84 | 1009.7 |